sat.trackr.live / text

‹ back to catalog

STARLINK-34544

NORAD 64865 · 2025-152Z

PAYLOAD ACTIVE UNKNOWN

§ Identity

Operator
Country
US
Launch date
2025-07-19
Launch site
AFWTR
Launch vehicle
Mass (kg)
RCS (m²)

Purposes: comms

External: N2YO · Heavens-Above · Gunter

§ Orbital elements

Epoch: 2026-09-20T13:25:25.276512Z

Period
93.91 min
Inclination
97.2851°
Eccentricity
0.0001453
Mean motion
15.33445813 rev/d
Perigee alt
464.5 km
Apogee alt
466.5 km
Semi-major
6,843.7 km
B*
3.4010e-4
RAAN
114.1262°
Arg perigee
83.6745°
Mean anomaly
276.4663°
Rev number
6,483

§ Raw data

STARLINK-345441 64865U 25152Z   26263.55932033  .00010921  00000+0  34010-3 0  99962 64865  97.2851 114.1262 0001453  83.6745 276.4663 15.33445813 64838

JSON: /api/v1/satellites/64865 · /tle

For live sub-satellite position, see the globe view (requires WebGL).

§ Visibility from observer

Set your observer location to see the next 7 days of passes ≥ 10°. The values pass through the URL so the page stays shareable.

No JS? Fill the form by hand. The geolocation button needs JavaScript.